This is the latest recevied weather packets stored in our database for station/object IK2ILW-4. If no packets are shown the sender has not sent any weather packets the latest 10 day(s).
| Time | Temp. | Humidity | Pressure | Rain* | Wind** | Luminosity | Snow |
|---|---|---|---|---|---|---|---|
| 1787657855 | 16.11° C | 90% | 1015.9 hPa | 39.37 mm | - | 858 W/m² | - |
| 1787657556 | 16.11° C | 91% | 1015.9 hPa | 39.37 mm | - | 824 W/m² | - |
| 1787657269 | 16.11° C | 93% | 1015.8 hPa | 39.37 mm | - | 854 W/m² | - |
| 1787656964 | 15.56° C | 94% | 1015.8 hPa | 39.37 mm | - | 304 W/m² | - |
| 1787656674 | 15° C | 94% | 1015.8 hPa | 39.37 mm | - | 304 W/m² | - |
| 1787656364 | 15° C | 95% | 1015.8 hPa | 39.37 mm | - | 698 W/m² | - |
| 1787656058 | 14.44° C | 95% | 1015.8 hPa | 39.37 mm | - | 543 W/m² | - |
| 1787655756 | 15° C | 95% | 1015.8 hPa | 39.37 mm | - | 461 W/m² | - |
| 1787655461 | 15° C | 95% | 1015.7 hPa | 39.37 mm | - | 348 W/m² | - |
| 1787655159 | 15° C | 95% | 1015.7 hPa | 39.37 mm | - | 431 W/m² | - |
| 1787654868 | 15° C | 95% | 1015.7 hPa | 39.37 mm | - | 942 W/m² | - |
| 1787654569 | 14.44° C | 95% | 1015.8 hPa | 39.37 mm | - | 316 W/m² | - |
| 1787654269 | 14.44° C | 95% | 1015.8 hPa | 39.37 mm | - | 355 W/m² | - |
| 1787653955 | 14.44° C | 95% | 1015.8 hPa | 39.37 mm | - | 343 W/m² | - |
| 1787653669 | 14.44° C | 95% | 1016.1 hPa | 39.37 mm | - | 309 W/m² | - |
| 1787653359 | 14.44° C | 94% | 1016.1 hPa | 39.37 mm | - | 287 W/m² | - |
| 1787653055 | 14.44° C | 94% | 1016.1 hPa | 39.37 mm | - | 248 W/m² | - |
| 1787652772 | 14.44° C | 94% | 1016.3 hPa | 39.37 mm | - | 292 W/m² | - |
| 1787652466 | 14.44° C | 94% | 1016.3 hPa | 39.37 mm | - | 287 W/m² | - |
| 1787652171 | 14.44° C | 95% | 1016.3 hPa | 39.37 mm | - | 287 W/m² | - |
| 1787651857 | 14.44° C | 95% | 1015.9 hPa | 39.37 mm | - | 287 W/m² | - |
| 1787651554 | 14.44° C | 95% | 1015.9 hPa | 39.37 mm | - | 257 W/m² | - |
| 1787651261 | 14.44° C | 94% | 1015.9 hPa | 39.37 mm | - | 292 W/m² | - |
| 1787650955 | 14.44° C | 94% | 1016.1 hPa | 39.12 mm | - | 258 W/m² | - |
| 1787650655 | 14.44° C | 94% | 1016.1 hPa | 39.12 mm | - | 257 W/m² | - |
* Rain since midnight (hover to see other rain measurements)
** Current wind speed in m/s (hover to see current wind gust speed)